Printer-friendly version

IAU Minor Planet Center

Minor Planet Center

MPEC 2007-F59 : 2007 FS3

The following Minor Planet Electronic Circular may be linked-to from your own Web pages, but must not otherwise be redistributed electronically.


Read MPEC 2007-F58 Read MPEC 2007-F60


M.P.E.C. 2007-F59                                Issued 2007 Mar. 21, 16:32 UT

     The Minor Planet Electronic Circulars contain information on unusual
         minor planets and routine data on comets.  They are published
   on behalf of Commission 20 of the International Astronomical Union by the
          Minor Planet Center, Smithsonian Astrophysical Observatory,
                          Cambridge, MA 02138, U.S.A.

             Prepared using the Tamkin Foundation Computer Network

                              MPC@CFA.HARVARD.EDU
          URL http://cfa-www.harvard.edu/iau/mpc.html  ISSN 1523-6714

                                   2007 FS3

Observations:
     K07F03S* C2007 03 20.35506 13 08 40.09 -07 15 36.7          19.1 V EF059G96
     K07F03S  C2007 03 20.36279 13 08 43.44 -07 14 42.2          18.9 V EF059G96
     K07F03S  C2007 03 20.37052 13 08 46.75 -07 13 48.1          19.2 V EF059G96
     K07F03S  C2007 03 20.37826 13 08 50.06 -07 12 53.6          19.0 V EF059G96
     K07F03S  C2007 03 20.51617 13 09 50.36 -06 56 59.6          18.9 V EF059G96
     K07F03S  C2007 03 20.51706 13 09 50.72 -06 56 53.8          18.4 V EF059G96
     K07F03S  C2007 03 21.08725 13 14 37.21 -06 01 38.3                 EF059J95
     K07F03S  C2007 03 21.09199 13 14 38.83 -06 01 12.3                 EF059J95
     K07F03S  C2007 03 21.09672 13 14 40.46 -06 00 46.9          19.5 R EF059J95
     K07F03S  C2007 03 21.24197 13 15 56.55 -05 46 45.9          19.4 V EF059G96
     K07F03S  C2007 03 21.24250 13 15 56.73 -05 46 43.7          19.7 V EF059G96
     K07F03S  C2007 03 21.24303 13 15 56.91 -05 46 41.2          19.5 V EF059G96
     K07F03S  C2007 03 21.24581 13 15 57.78 -05 46 27.1          19.7 V EF059G96
     K07F03S  C2007 03 21.30419 13 16 15.37 -05 41 35.6          19.0 V EF059703
     K07F03S  C2007 03 21.30472 13 16 15.48 -05 41 33.5          19.0 V EF059703
     K07F03S  C2007 03 21.30524 13 16 15.51 -05 41 31.0          19.1 V EF059703
     K07F03S  C2007 03 21.30577 13 16 15.69 -05 41 30.1          19.1 V EF059703

Observer details:
703 Catalina Sky Survey.  Observer R. E. Hill.  Measurers E. C. Beshore,
    E. J. Christensen, G. J. Garradd, A. R. Gibbs, A. D. Grauer, R. E. Hill,
    R. A. Kowalski, S. M. Larson, R. H. McNaught.  0.68-m Schmidt + CCD.
G96 Mt. Lemmon Survey.  Observer A. R. Gibbs.  Measurers E. C. Beshore,
    E. J. Christensen, G. J. Garradd, A. R. Gibbs, A. D. Grauer, R. E. Hill,
    R. A. Kowalski, S. M. Larson, R. H. McNaught.  1.5-m reflector + CCD.
J95 Great Shefford.  Observer P. Birtwhistle.  0.40-m f/6.0 Schmidt-Cassegrain
    + CCD.

Orbital elements:
2007 FS3                                                 Earth MOID = 0.0056 AU
Epoch 2007 Apr. 10.0 TT = JDT 2454200.5                 MPC
M  28.81968              (2000.0)            P               Q
n   0.49351788     Peri.  313.33035     -0.68171457     -0.73161816
a   1.5858695      Node   179.64686     +0.68646318     -0.63980326
e   0.4177507      Incl.    3.22263     +0.25304852     -0.23534370
P   2.00           H   26.1           G   0.15           U   7
Residuals in seconds of arc
070320 G96  0.5-  0.1+    070321 J95  0.2-  0.2-    070321 G96  0.3+  0.4-
070320 G96  0.2-  0.2+    070321 J95  0.2-  0.2+    070321 703  0.6+  1.6+
070320 G96  0.3-  0.1+    070321 J95  0.1+  0.0     070321 703  0.0   1.0+
070320 G96  0.4-  0.3+    070321 G96  0.2+  0.1-    070321 703  1.8-  1.0+
070320 G96  0.5+  0.1+    070321 G96  0.3+  0.5-    070321 703  1.4-  0.7-
070320 G96  0.2-  0.1-    070321 G96  0.5+  0.7-

Ephemeris:
2007 FS3                 a,e,i = 1.59, 0.42, 3                   q = 0.9234
Date    TT    R. A. (2000) Decl.     Delta      r     Elong.  Phase     V
2007 03 21    13 14.02   -06 04.9    0.0260   1.021   160.5    19.1    19.2
2007 03 26    13 32.73   -02 02.2    0.0498   1.045   161.3    17.8    20.6
2007 03 31    13 38.40   -00 37.9    0.0743   1.070   164.1    14.8    21.4
2007 04 05    13 40.43   +00 01.1    0.0998   1.098   167.1    11.7    22.0
2007 04 10    13 40.98   +00 19.4    0.126    1.126   169.3     9.5    22.5

Kyle E. Smalley              (C) Copyright 2007 MPC           M.P.E.C. 2007-F59

Read MPEC 2007-F58 Read MPEC 2007-F60


Our Web policy. Index to the CBAT/MPC/ICQ pages.


Valid HTML 4.01!